Weather History for KHIB - March, 2013

Change the Weather History Date:

Sunday, March 31, 2013

  Actual Average Record
Temperature  
Mean Temperature 30 °F -  
Max Temperature 36 °F 39 °F 71 °F (1963)
Min Temperature 21 °F 20 °F -14 °F (1975)
Degree Days  
Heating Degree Days 36    
Moisture  
Dew Point 20 °F    
Average Humidity 68    
Maximum Humidity 86    
Minimum Humidity 45    
Precipitation  
Precipitation 0.00 in - - ()
Sea Level Pressure  
Sea Level Pressure 29.81 in    
Wind  
Wind Speed 14 mph (NW)    
Max Wind Speed 26 mph    
Max Gust Speed 38 mph    
Visibility 6 miles    
Events Snow    
Averages and records for this station are not official NWS values.
T = Trace of Precipitation, MM = Missing Value Source: NWS Daily Summary

Daily Weather History Graph

Daily Weather History Graph

Search for Another Location

Airport or City:

Trip Planner

Search our weather history database for the weather conditions in past years. The results will help you decide how hot, cold, wet, or windy it might be!

Date:

Astronomy

Mar. 31, 2013 Rise Set
Actual Time 6:51 AM CDT 7:40 PM CDT
Civil Twilight 6:20 AM CDT 8:11 PM CDT
Nautical Twilight 5:43 AM CDT 8:48 PM CDT
Astronomical Twilight 5:04 AM CDT 9:27 PM CDT
Moon 12:03 AM CDT (3/31) 9:22 AM CDT (3/31)
Length of Visible Light 13h 50m
Length of Day
12h 48m
Waning Gibbous, 77% of the Moon is Illuminated
Mar 31
Waning Gibbous
Apr 2
Last Quarter
Apr 10
New
Apr 18
First Quarter
Apr 25
Full

Hourly Weather History & Observations

Time (CDT) Temp. Windchill Dew Point Humidity Pressure Visibility Wind Dir Wind Speed Gust Speed Precip Events Conditions
12:53 AM 36.0 °F 28.5 °F 24.1 °F 62% 29.78 in 10.0 mi WNW 10.4 mph - N/A   Partly Cloudy
1:53 AM 35.1 °F 27.9 °F 24.1 °F 64% 29.78 in 10.0 mi WNW 9.2 mph - N/A   Overcast
2:53 AM 33.1 °F 24.4 °F 26.1 °F 75% 29.76 in 9.0 mi WNW 11.5 mph - N/A   Overcast
3:53 AM 33.1 °F 28.7 °F 27.0 °F 78% 29.75 in 4.0 mi WNW 4.6 mph - 0.00 in Snow Light Snow
4:43 AM 32.0 °F 25.6 °F 26.6 °F 80% 29.69 in 5.0 mi WNW 6.9 mph - 0.00 in Snow Light Snow
4:53 AM 32.0 °F 25.6 °F 27.0 °F 82% 29.73 in 4.0 mi West 6.9 mph - 0.00 in Snow Light Snow
5:18 AM 32.0 °F 24.2 °F 26.6 °F 80% 29.68 in 7.0 mi WNW 9.2 mph - 0.00 in Snow Light Snow
5:29 AM 32.0 °F 23.6 °F 26.6 °F 80% 29.68 in 5.0 mi NW 10.4 mph - 0.00 in Snow Light Snow
5:53 AM 32.0 °F 23.6 °F 25.0 °F 75% 29.72 in 5.0 mi WNW 10.4 mph - 0.00 in Snow Light Snow
6:07 AM 32.0 °F 23.0 °F 24.8 °F 75% 29.68 in 5.0 mi WNW 11.5 mph - 0.00 in Snow Light Snow
6:14 AM 30.2 °F 21.3 °F 24.8 °F 80% 29.68 in 2.5 mi WNW 10.4 mph - 0.00 in Snow Light Snow
6:16 AM 30.2 °F 21.3 °F 24.8 °F 80% 29.68 in 1.8 mi WNW 10.4 mph - 0.00 in Snow Light Snow
6:27 AM 30.2 °F 22.6 °F 26.6 °F 86% 29.68 in 2.0 mi WNW 8.1 mph - 0.00 in Snow Light Snow
6:32 AM 30.2 °F 21.9 °F 26.6 °F 86% 29.68 in 3.0 mi WNW 9.2 mph - 0.00 in Snow Light Snow
6:53 AM 30.0 °F 19.5 °F 25.0 °F 82% 29.73 in 2.5 mi NW 13.8 mph - 0.00 in Snow Light Snow
7:08 AM 30.2 °F 17.8 °F 24.8 °F 80% 29.69 in 0.8 mi NW 19.6 mph 25.3 mph 0.00 in Snow Light Snow
7:39 AM 30.2 °F 18.5 °F 24.8 °F 80% 29.70 in 1.0 mi NW 17.3 mph 25.3 mph 0.00 in Snow Light Snow
7:48 AM 30.2 °F 17.4 °F 24.8 °F 80% 29.70 in 3.0 mi NNW 20.7 mph - 0.00 in Snow Light Snow
7:53 AM 30.0 °F 17.9 °F 24.1 °F 79% 29.75 in 2.5 mi NNW 18.4 mph - 0.00 in Snow Light Snow
8:12 AM 30.2 °F 18.5 °F 23.0 °F 75% 29.71 in 4.0 mi NW 17.3 mph - 0.00 in   Overcast
8:53 AM 28.0 °F 13.3 °F 19.9 °F 72% 29.78 in 2.0 mi NW 25.3 mph 32.2 mph 0.00 in   Mostly Cloudy
9:10 AM 28.4 °F 14.4 °F 19.4 °F 69% 29.73 in 6.0 mi NW 23.0 mph 32.2 mph 0.00 in   Overcast
9:27 AM 28.4 °F 13.5 °F 17.6 °F 64% 29.74 in 4.0 mi NW 26.5 mph 38.0 mph 0.00 in Snow Light Snow
9:53 AM 28.0 °F 13.6 °F 16.0 °F 61% 29.80 in 10.0 mi NW 24.2 mph 33.4 mph 0.00 in   Overcast
10:53 AM 28.9 °F 14.5 °F 16.0 °F 58% 29.82 in 10.0 mi NW 25.3 mph 32.2 mph 0.00 in   Overcast
11:53 AM 28.9 °F 15.8 °F 17.1 °F 61% 29.84 in 10.0 mi NNW 20.7 mph 33.4 mph 0.00 in   Mostly Cloudy
12:34 PM 26.6 °F 12.0 °F 17.6 °F 69% 29.81 in 1.8 mi NW 23.0 mph 31.1 mph 0.00 in Snow Light Snow
12:45 PM 28.4 °F 15.4 °F 17.6 °F 64% 29.80 in 2.0 mi NNW 19.6 mph 28.8 mph 0.00 in Snow Light Snow
12:47 PM 28.4 °F 16.2 °F 17.6 °F 64% 29.80 in 3.0 mi NW 17.3 mph 28.8 mph 0.00 in Snow Light Snow
12:53 PM 30.0 °F 16.6 °F 17.1 °F 59% 29.86 in 9.0 mi NW 23.0 mph 27.6 mph 0.00 in   Mostly Cloudy
1:53 PM 30.0 °F 16.9 °F 15.1 °F 54% 29.87 in 10.0 mi NW 21.9 mph 27.6 mph 0.00 in   Mostly Cloudy
2:53 PM 30.0 °F 17.2 °F 10.9 °F 45% 29.89 in 10.0 mi NNW 20.7 mph - 0.00 in   Overcast
3:53 PM 30.0 °F 16.3 °F 12.9 °F 49% 29.90 in 10.0 mi NNW 24.2 mph 28.8 mph 0.00 in   Overcast
4:53 PM 27.0 °F 15.2 °F 12.9 °F 56% 29.93 in 10.0 mi WNW 15.0 mph 31.1 mph 0.00 in   Overcast
5:53 PM 26.1 °F 12.0 °F 12.0 °F 55% 29.95 in 10.0 mi NW 20.7 mph 27.6 mph N/A   Mostly Cloudy
6:53 PM 25.0 °F 10.2 °F 10.9 °F 55% 29.99 in 10.0 mi NW 21.9 mph - N/A   Mostly Cloudy
7:53 PM 25.0 °F 11.7 °F 9.0 °F 51% 30.01 in 10.0 mi NNW 17.3 mph - N/A   Overcast
8:53 PM 24.1 °F 11.0 °F 9.0 °F 53% 30.04 in 10.0 mi NNW 16.1 mph - N/A   Mostly Cloudy
9:53 PM 24.1 °F 12.5 °F 10.0 °F 55% 30.06 in 10.0 mi NNW 12.7 mph - N/A   Overcast
10:53 PM 23.0 °F 9.6 °F 10.0 °F 58% 30.07 in 10.0 mi NW 16.1 mph - N/A   Overcast
11:53 PM 21.9 °F 8.2 °F 10.0 °F 60% 30.07 in 10.0 mi NW 16.1 mph - N/A   Overcast